FW2218 Weather Reports


Display with metric or nautical units.
time (UTC)temp
F
wind
direction
speed
MPH
gust
MPH
rain 1hr
in
rain 24hr
in
rain mn
in
humidity
%
barometer
mb
20260906004532 69 252 6.0 14.0 0.00 0.00 0.00 52 1010.4
20260906001530 74 259 7.0 14.0 0.00 0.00 0.00 43 1010.1
20260906000031 75 285 5.0 12.0 0.00 0.00 0.00 41 1010.0
20260905233031 74 330 4.0 8.0 0.00 0.00 0.00 41 1010.1
20260905231529 74 11 4.0 9.0 0.00 0.01 0.00 41 1010.1
20260905230037 73 356 4.0 8.0 0.00 0.01 0.00 42 1010.2
20260905224534 74 342 6.0 10.0 0.00 0.01 0.00 43 1010.1
20260905223031 75 350 4.0 12.0 0.00 0.01 0.00 43 1010.3
20260905221537 75 10 4.0 10.0 0.00 0.01 0.00 43 1010.4
20260905220033 75 29 4.0 12.0 0.00 0.01 0.00 43 1010.7
20260905214645 74 343 4.0 9.0 0.00 0.01 0.00 46 1010.8
20260905213105 73 8 2.0 9.0 0.00 0.01 0.00 47 1011.1
20260905211609 73 112 1.0 4.0 0.00 0.01 0.00 46 1011.2
20260905210047 74 302 2.0 6.0 0.00 0.01 0.00 49 1011.2
20260905204528 74 307 3.0 8.0 0.00 0.01 0.00 48 1011.3
20260905203031 73 308 2.0 6.0 0.00 0.01 0.00 49 1011.4
20260905201531 72 315 3.0 7.0 0.00 0.01 0.00 51 1011.5
20260905200107 72 332 4.0 8.0 0.00 0.01 0.00 51 1011.7
20260905194531 72 330 4.0 10.0 0.00 0.01 0.00 51 1011.8
20260905193031 71 329 3.0 9.0 0.00 0.01 0.00 53 1012.0
20260905191533 69 353 2.0 5.0 0.00 0.01 0.00 56 1012.3
20260905190103 68 350 2.0 5.0 0.00 0.01 0.00 59 1012.5
20260905184530 68 284 1.0 4.0 0.00 0.01 0.00 60 1012.7
20260905183105 69 313 1.0 3.0 0.00 0.01 0.00 59 1012.7
20260905181602 67 325 1.0 4.0 0.00 0.01 0.00 63 1012.9
20260905174606 64 285 0.0 3.0 0.00 0.01 0.00 68 1013.0
20260905173030 64 322 3.0 4.0 0.00 0.01 0.00 69 1013.0
20260905171530 62 39 0.0 3.0 0.00 0.01 0.00 72 1013.1
20260905170109 61 1 1.0 4.0 0.00 0.01 0.00 75 1013.1
20260905164530 60 14 3.0 5.0 0.00 0.01 0.00 76 1013.1
20260905163107 59 22 1.0 4.0 0.00 0.01 0.00 77 1013.0
20260905161528 58 39 1.0 3.0 0.00 0.01 0.00 78 1013.0
20260905160031 57 90 1.0 3.0 0.00 0.01 0.00 79 1013.0
20260905154540 57 107 2.0 4.0 0.00 0.01 0.00 79 1013.0
20260905153031 56 102 1.0 3.0 0.00 0.01 0.00 80 1012.9
20260905151531 56 111 3.0 4.0 0.00 0.01 0.00 80 1012.9
20260905150031 56 109 3.0 4.0 0.00 0.01 0.00 80 1012.9
20260905144530 56 105 2.0 5.0 0.00 0.01 0.00 81 1012.8
20260905143030 55 108 2.0 4.0 0.00 0.01 0.00 82 1012.8
20260905141532 55 112 3.0 6.0 0.00 0.01 0.00 83 1012.6
20260905140031 55 113 4.0 7.0 0.00 0.01 0.00 85 1012.5
20260905134531 55 111 4.0 6.0 0.00 0.01 0.00 86 1012.2
20260905133032 55 90 2.0 4.0 0.00 0.01 0.00 86 1012.0
20260905131530 55 93 2.0 3.0 0.00 0.01 0.00 85 1012.0
20260905124533 55 112 2.0 3.0 0.00 0.01 0.00 84 1012.0
20260905123030 55 112 2.0 4.0 0.00 0.01 0.00 82 1011.9
20260905121529 56 112 2.0 4.0 0.00 0.01 0.00 82 1011.9
20260905120029 56 112 2.0 4.0 0.00 0.01 0.00 82 1011.9
20260905114532 56 112 3.0 4.0 0.00 0.01 0.00 83 1011.9
20260905111533 56 111 2.0 4.0 0.00 0.01 0.00 83 1011.8
20260905101536 57 74 2.0 3.0 0.00 0.01 0.00 80 1011.7
20260905100037 57 33 1.0 3.0 0.00 0.01 0.00 79 1011.7
20260905094531 57 181 0.0 3.0 0.00 0.01 0.00 77 1011.8
20260905093033 58 211 0.0 0.0 0.00 0.01 0.00 76 1011.7
20260905090030 58 181 1.0 3.0 0.00 0.01 0.00 74 1011.5
20260905084531 58 161 1.0 4.0 0.00 0.01 0.00 76 1011.5
20260905081536 58 270 0.0 0.0 0.00 0.01 0.00 79 1011.4
20260905080104 58 270 0.0 0.0 0.00 0.01 0.00 78 1011.3
20260905074537 58 273 0.0 4.0 0.00 0.01 0.00 78 1011.2
20260905073028 58 284 0.0 4.0 0.00 0.01 0.00 78 1011.0
20260905070039 58 286 0.0 4.0 0.00 0.01 0.00 77 1010.8
20260905064531 58 339 2.0 6.0 0.00 0.01 0.01 77 1010.7
20260905063036 58 332 1.0 7.0 0.00 0.01 0.01 77 1010.5
20260905061531 58 69 0.0 3.0 0.00 0.01 0.01 77 1010.5
20260905060033 58 131 0.0 1.0 0.00 0.01 0.01 76 1010.5
20260905054647 59 174 1.0 2.0 0.00 0.01 0.01 74 1010.4
20260905053031 59 281 0.0 4.0 0.00 0.01 0.01 72 1010.3
20260905051611 60 319 1.0 3.0 0.00 0.01 0.01 70 1010.3
20260905044537 61 222 2.0 4.0 0.00 0.01 0.01 64 1010.0
20260905043032 61 210 2.0 4.0 0.00 0.01 0.01 63 1010.0
20260905041539 61 218 2.0 5.0 0.00 0.01 0.01 64 1010.0
20260905040036 61 191 2.0 5.0 0.00 0.01 0.01 65 1009.9
20260905034538 61 206 2.0 5.0 0.00 0.01 0.01 66 1009.6
20260905033030 62 215 2.0 5.0 0.00 0.01 0.01 65 1009.5
20260905024611 62 293 1.0 6.0 0.00 0.01 0.01 66 1009.3
20260905023033 63 282 2.0 7.0 0.00 0.05 0.01 62 1009.3
20260905021532 65 274 3.0 6.0 0.00 0.07 0.01 59 1009.2
20260905020031 66 275 4.0 8.0 0.00 0.07 0.01 57 1008.9
20260905013038 68 255 6.0 11.0 0.00 0.08 0.01 57 1008.5
20260905011530 68 267 6.0 13.0 0.00 0.08 0.01 58 1008.4
20260905010106 67 277 5.0 11.0 0.00 0.08 0.01 59 1008.2